Weather History for KFLY - November, 2012

Change the Weather History Date:

Tuesday, November 27, 2012

  Actual Average (KCOS) Record (KCOS)
Temperature  
Mean Temperature 35 °F 33 °F  
Max Temperature 56 °F 46 °F 72 °F (1998)
Min Temperature 14 °F 21 °F -10 °F (1896)
Degree Days  
Heating Degree Days 30 32  
Month to date heating degree days 709  
Since 1 July heating degree days 1383  
Cooling Degree Days 0 0  
Month to date cooling degree days 0  
Year to date cooling degree days 455  
Moisture  
Dew Point -5 °F    
Average Humidity 26    
Maximum Humidity 100    
Minimum Humidity 5    
Precipitation  
Precipitation 0.00 in 0.01 in 0.53 in (1972)
Month to date precipitation 0.36  
Year to date precipitation 16.16  
Snow  
Snow 0.00 in 0.20 in 8.50 in (1972)
Month to date snowfall 4.1  
Since 1 July snowfall 7.2  
Since 1 September snowfall 7.2  
Snow Depth -    
Sea Level Pressure  
Sea Level Pressure 30.22 in    
Wind  
Wind Speed 9 mph (WNW)    
Max Wind Speed 15 mph    
Max Gust Speed 21 mph    
Visibility 9 miles    
Events Fog    
T = Trace of Precipitation, MM = Missing Value Source: NWS Daily Summary

Daily Weather History Graph

Daily Weather History Graph

Search for Another Location

Airport or City:

Trip Planner

Search our weather history database for the weather conditions in past years. The results will help you decide how hot, cold, wet, or windy it might be!

Date:

Astronomy

Nov. 27, 2012 Rise Set
Actual Time 6:54 AM MST 4:37 PM MST
Civil Twilight 6:25 AM MST 5:06 PM MST
Nautical Twilight 5:52 AM MST 5:39 PM MST
Astronomical Twilight 5:20 AM MST 6:11 PM MST
Moon 4:10 PM MST (11/27) 6:01 AM MST (11/27)
Length of Visible Light 10h 41m
Length of Day
9h 42m
Waxing Gibbous, 99% of the Moon is Illuminated
Nov 27
Waxing Gibbous
Nov 28
Full
Dec 6
Last Quarter
Dec 13
New
Dec 19
First Quarter

Hourly Weather History & Observations

Time (MST) Temp. Windchill Dew Point Humidity Pressure Visibility Wind Dir Wind Speed Gust Speed Precip Events Conditions
12:11 AM 23.0 °F 14.7 °F 23.0 °F 100% 30.25 in 0.2 mi WSW 6.9 mph - N/A Fog Light Freezing Fog
12:31 AM 22.6 °F 15.3 °F 22.5 °F 99% 30.24 in 0.2 mi SW 5.8 mph - N/A Fog Light Freezing Fog
12:51 AM 22.5 °F 14.1 °F 22.5 °F 100% 30.23 in 0.2 mi West 6.9 mph - N/A Fog Light Freezing Fog
1:11 AM 22.1 °F 14.7 °F 22.1 °F 100% 30.22 in 0.2 mi West 5.8 mph - N/A Fog Light Freezing Fog
1:31 AM 21.9 °F 14.5 °F 21.9 °F 100% 30.22 in 0.2 mi West 5.8 mph - N/A Fog Light Freezing Fog
1:51 AM 21.6 °F 16.8 °F 21.6 °F 100% 30.22 in 0.2 mi West 3.5 mph - N/A Fog Light Freezing Fog
2:11 AM 21.0 °F 13.4 °F 20.8 °F 99% 30.21 in 0.2 mi WNW 5.8 mph - N/A Fog Light Freezing Fog
2:31 AM 17.8 °F 12.5 °F 17.2 °F 98% 30.20 in 1.2 mi West 3.5 mph - N/A   Mostly Cloudy
2:51 AM 16.5 °F 6.9 °F 15.4 °F 96% 30.19 in 7.0 mi WNW 6.9 mph - N/A   Clear
3:11 AM 14.9 °F 5.0 °F 12.4 °F 90% 30.18 in 10.0 mi NW 6.9 mph - N/A   Clear
3:31 AM 23.0 °F 12.4 °F 16.3 °F 76% 30.18 in 10.0 mi NW 10.4 mph - N/A   Clear
3:51 AM 24.6 °F 13.2 °F 13.1 °F 62% 30.17 in 10.0 mi WNW 12.7 mph - N/A   Clear
4:11 AM 29.3 °F 19.6 °F 10.0 °F 45% 30.17 in 10.0 mi WNW 11.5 mph - N/A   Clear
4:51 AM 34.5 °F 26.2 °F -0.9 °F 22% 30.18 in 10.0 mi WNW 11.5 mph - N/A   Clear
5:11 AM 35.1 °F 25.5 °F -2.7 °F 20% 30.19 in 10.0 mi West 15.0 mph - N/A   Clear
5:31 AM 30.4 °F 22.9 °F -2.7 °F 24% 30.18 in 10.0 mi WNW 8.1 mph - N/A   Clear
5:51 AM 30.4 °F 21.5 °F -3.6 °F 23% 30.18 in 10.0 mi WNW 10.4 mph - N/A   Clear
6:11 AM 36.1 °F 28.2 °F -8.1 °F 15% 30.19 in 10.0 mi WNW 11.5 mph - N/A   Clear
6:31 AM 37.4 °F 29.3 °F -10.1 °F 13% 30.19 in 10.0 mi WNW 12.7 mph - N/A   Clear
6:51 AM 37.9 °F 29.6 °F -11.2 °F 12% 30.19 in 10.0 mi WNW 13.8 mph - N/A   Clear
7:11 AM 39.4 °F 31.4 °F -11.0 °F 11% 30.21 in 10.0 mi WNW 13.8 mph - N/A   Clear
7:31 AM 42.3 °F 34.8 °F -11.7 °F 10% 30.21 in 10.0 mi WNW 15.0 mph - N/A   Clear
7:51 AM 44.4 °F 38.6 °F -11.2 °F 9% 30.22 in 10.0 mi WNW 11.5 mph - N/A   Clear
8:11 AM 47.8 °F - -11.2 °F 8% 30.22 in 10.0 mi WNW 13.8 mph - N/A   Clear
8:31 AM 51.1 °F - -9.9 °F 8% 30.23 in 10.0 mi WNW 10.4 mph 17.3 mph N/A   Clear
8:51 AM 54.0 °F - -11.7 °F 6% 30.23 in 10.0 mi NW 12.7 mph 19.6 mph N/A   Clear
9:11 AM 56.1 °F - -10.7 °F 6% 30.23 in 10.0 mi WNW 13.8 mph 17.3 mph N/A   Clear
9:31 AM 52.7 °F - -13.2 °F 6% 30.24 in 10.0 mi West 8.1 mph - N/A   Clear
9:51 AM 52.2 °F - -11.0 °F 7% 30.24 in 10.0 mi WNW 13.8 mph 19.6 mph N/A   Clear
10:11 AM 53.1 °F - -12.1 °F 6% 30.23 in 10.0 mi WNW 12.7 mph 18.4 mph N/A   Clear
10:31 AM 54.1 °F - -14.1 °F 6% 30.22 in 10.0 mi West 13.8 mph 20.7 mph N/A   Clear
10:51 AM 54.9 °F - -14.1 °F 6% 30.22 in 10.0 mi WNW 13.8 mph - N/A   Clear
11:11 AM 55.0 °F - -14.1 °F 5% 30.22 in 10.0 mi WNW 13.8 mph 18.4 mph N/A   Clear
11:31 AM 55.4 °F - -15.0 °F 5% 30.22 in 10.0 mi WNW 13.8 mph 19.6 mph N/A   Clear
11:51 AM 55.6 °F - -14.6 °F 5% 30.20 in 10.0 mi WNW 15.0 mph 19.6 mph N/A   Clear
12:11 PM 55.4 °F - -14.6 °F 5% 30.19 in 10.0 mi NW 6.9 mph 18.4 mph N/A   Clear
12:31 PM 54.9 °F - -13.2 °F 6% 30.18 in 10.0 mi NW 8.1 mph - N/A   Clear
12:51 PM 54.1 °F - -9.0 °F 7% 30.18 in 10.0 mi SSW 6.9 mph - N/A   Clear
1:11 PM 53.1 °F - -6.5 °F 8% 30.18 in 10.0 mi SSW 8.1 mph - N/A   Clear
1:31 PM 52.7 °F - -6.2 °F 9% 30.18 in 10.0 mi SSW 8.1 mph - N/A   Clear
1:51 PM 52.2 °F - -5.6 °F 9% 30.18 in 10.0 mi SW 5.8 mph - N/A   Clear
2:11 PM 52.0 °F - -5.3 °F 9% 30.18 in 10.0 mi WSW 5.8 mph - N/A   Clear
2:31 PM 51.1 °F - -4.4 °F 10% 30.18 in 10.0 mi SW 6.9 mph - N/A   Clear
2:51 PM 49.6 °F - -2.7 °F 11% 30.18 in 10.0 mi WSW 3.5 mph - N/A   Clear
3:11 PM 49.5 °F - -4.5 °F 11% 30.18 in 10.0 mi Calm Calm - N/A   Clear
3:31 PM 47.5 °F - -4.2 °F 12% 30.18 in 10.0 mi NW 4.6 mph - N/A   Clear
3:51 PM 46.9 °F - -4.4 °F 12% 30.18 in 10.0 mi WNW 6.9 mph - N/A   Clear
4:11 PM 47.1 °F - -5.4 °F 11% 30.18 in 10.0 mi West 9.2 mph - N/A   Clear
4:51 PM 39.0 °F 35.7 °F -9.8 °F 12% 30.19 in 10.0 mi WSW 4.6 mph - N/A   Clear
5:11 PM 45.0 °F 40.1 °F -16.1 °F 7% 30.20 in 10.0 mi South 9.2 mph 16.1 mph N/A   Clear
5:31 PM 39.9 °F 36.7 °F -12.8 °F 10% 30.21 in 10.0 mi North 4.6 mph - N/A   Clear
5:51 PM 36.1 °F 27.7 °F -12.1 °F 12% 30.22 in 10.0 mi North 12.7 mph - N/A   Clear
6:11 PM 34.2 °F 28.2 °F -12.5 °F 13% 30.22 in 10.0 mi North 6.9 mph - N/A   Clear
6:31 PM 37.8 °F 29.8 °F -14.1 °F 11% 30.23 in 10.0 mi North 12.7 mph - N/A   Clear
6:51 PM 36.5 °F 29.7 °F -13.2 °F 12% 30.23 in 10.0 mi NW 9.2 mph - N/A   Clear
7:11 PM 37.9 °F 32.1 °F -13.0 °F 11% 30.24 in 10.0 mi North 8.1 mph 16.1 mph N/A   Clear
7:31 PM 38.1 °F 31.7 °F -13.0 °F 11% 30.24 in 10.0 mi North 9.2 mph 16.1 mph N/A   Clear
7:51 PM 39.7 °F 33.7 °F -12.6 °F 10% 30.25 in 10.0 mi North 9.2 mph - N/A   Clear
8:11 PM 39.0 °F 32.8 °F -13.0 °F 11% 30.26 in 10.0 mi North 9.2 mph - N/A   Clear
8:31 PM 37.0 °F 31.0 °F -13.2 °F 11% 30.26 in 10.0 mi NNW 8.1 mph - N/A   Clear
8:51 PM 37.0 °F 31.0 °F -13.5 °F 11% 30.26 in 10.0 mi North 8.1 mph - N/A   Clear
9:11 PM 33.8 °F 27.7 °F -13.0 °F 13% 30.26 in 10.0 mi NNW 6.9 mph - N/A   Clear
9:31 PM 38.7 °F 32.4 °F -13.0 °F 11% 30.26 in 10.0 mi North 9.2 mph - N/A   Clear
9:51 PM 37.9 °F 32.7 °F -12.6 °F 11% 30.26 in 10.0 mi North 6.9 mph - N/A   Clear
10:11 PM 36.0 °F 29.6 °F -13.2 °F 12% 30.27 in 10.0 mi North 8.1 mph - N/A   Clear
10:51 PM 31.1 °F 24.5 °F -10.7 °F 16% 30.28 in 10.0 mi North 6.9 mph - N/A   Clear
11:11 PM 32.4 °F 26.9 °F -9.8 °F 16% 30.28 in 10.0 mi NNW 5.8 mph - N/A   Clear
11:31 PM 26.4 °F 18.9 °F -6.9 °F 23% 30.29 in 10.0 mi NW 6.9 mph - N/A   Clear
11:51 PM 27.1 °F 23.2 °F -5.1 °F 25% 30.29 in 10.0 mi NNW 3.5 mph - N/A   Clear